Temperature
18 18 18 18 18 17 17 17 17 16 16 16 16 16 16 16 15 15 15 15 15 15 15 15 15 15 15 14 14 14 14 14 14 14 14 14 14 14 14 14 14 14 14
18 18 18 18 18 17 17 17 17 16 16 16 16 16 16 15 15 15 15 15 15 15 15 15 15 15 14 14 14 14 14 14 14 14 14 13 13 14 13 14 14 14 14
18 18 18 17 17 17 17 17 17 16 16 16 16 16 15 15 15 15 15 15 15 15 15 15 15 14 14 14 14 14 14 14 14 14 14 14 14 13 13 13 13 13 14
18 18 18 17 17 17 17 17 16 16 16 16 16 15 15 15 15 15 15 15 14 14 14 14 14 14 14 14 14 14 14 14 14 14 14 14 14 14 13 13 13 13 13
18 18 18 17 17 17 17 17 16 16 16 16 15 15 15 15 15 14 14 15 14 14 14 14 14 14 14 14 14 14 14 14 14 14 14 14 14 14 13 13 13 13 13
18 18 17 17 17 17 17 16 16 16 16 16 15 15 15 15 15 14 14 14 14 14 14 14 14 14 14 14 14 14 14 14 14 14 14 14 14 14 14 13 13 13 13
17 17 17 17 17 17 16 16 16 16 16 16 15 15 15 15 14 14 14 14 14 14 14 14 14 14 14 14 14 13 13 13 13 13 13 13 13 14 14 14 13 13 13
17 17 17 17 17 16 16 16 16 16 16 15 15 15 15 15 14 14 14 14 14 14 14 14 14 14 13 13 13 13 13 13 13 13 13 13 13 13 14 14 13 13 13
17 17 17 17 16 16 16 16 16 16 15 15 15 15 15 15 14 14 14 14 14 14 13 13 13 13 13 13 13 13 13 13 13 13 13 13 13 13 13 13 13 13 13
17 17 17 17 16 16 16 16 16 16 15 15 15 15 15 14 14 14 14 14 14 13 13 13 13 13 13 13 13 13 13 13 13 13 13 13 13 13 13 13 13 13 13
17 17 17 17 16 16 16 15 15 15 15 15 15 15 14 14 14 14 14 13 13 13 13 13 13 13 13 13 13 13 13 13 13 13 13 13 13 13 13 13 13 13 13
17 17 16 16 16 16 15 15 15 15 15 15 15 14 14 14 14 14 14 13 13 13 13 13 13 13 13 13 13 13 13 12 13 12 12 12 12 12 12 12 12 13 13
17 17 16 16 16 15 15 15 15 14 14 14 14 14 14 14 14 14 13 13 13 13 13 13 13 13 13 13 13 12 12 12 12 12 12 12 12 12 12 12 12 12 12
17 16 16 16 15 15 15 14 14 14 14 14 14 14 13 14 13 13 13 13 13 13 13 13 13 13 12 12 12 12 12 12 12 12 12 12 12 12 12 12 12 12 12
16 16 16 15 15 15 14 14 14 14 14 13 13 13 13 13 13 13 13 13 13 13 12 12 12 12 12 12 12 12 12 12 12 12 12 12 12 12 12 12 12 12 11
16 15 15 15 15 15 14 14 14 13 13 13 13 13 13 13 13 12 12 12 12 12 12 12 12 12 12 12 12 12 12 12 12 12 12 11 11 11 11 11 11 11 11
15 15 15 15 15 14 14 14 13 13 13 13 13 12 12 12 12 12 12 12 12 12 12 12 12 12 12 12 12 11 11 11 11 12 11 11 11 11 11 11 11 11 11
15 15 15 14 14 14 14 13 13 13 12 12 12 12 12 12 12 12 11 11 11 11 11 11 11 11 11 11 11 11 11 11 11 11 11 11 11 11 11 11 11 11 11
15 15 15 14 14 14 13 13 13 12 12 12 12 11 11 11 11 11 11 11 11 11 11 11 11 11 11 11 11 11 11 11 11 11 11 11 10 10 10 10 10 10 10
15 14 14 14 13 13 13 13 12 12 12 11 11 11 11 11 11 11 11 10 10 10 10 10 10 10 10 10 10 10 10 10 10 10 10 10 10 10 10 10 10 10 10
14 14 13 13 13 13 12 12 12 11 11 11 11 11 10 10 10 10 10 10 10 9 9 9 9 9 9 10 10 9 10 10 10 10 9 9 9 9 9 9 9 9 9
13 13 13 13 12 12 12 12 11 11 11 11 10 10 10 10 10 10 10 9 9 9 9 9 9 9 9 9 9 9 9 9 9 9 9 9 9 9 9 8 8 8 8
13 13 12 12 12 12 11 11 11 11 10 10 10 10 10 10 9 9 9 9 9 9 9 9 9 9 9 8 8 9 9 9 8 8 8 8 8 8 8 8 8 8 8
12 12 12 12 11 11 11 11 10 10 10 10 10 9 9 9 9 9 9 9 8 8 8 8 8 8 8 8 8 8 8 8 8 8 8 8 8 8 7 7 7 7 7
12 11 11 11 11 10 10 10 10 10 9 9 9 9 9 9 9 9 8 8 8 8 8 8 8 8 8 8 8 7 7 7 7 7 7 7 7 7 7 7 7 7 7
11 11 10 10 10 10 10 9 9 9 9 9 9 8 8 8 8 8 8 8 8 8 8 7 7 7 7 7 7 7 7 7 7 7 7 7 6 6 6 6 6 6 6
Wind_Speed
5 5 5 6 6 5 5 5 5 4 4 3 3 3 2 1 2 3 4 5 5 6 5 4 3 3 3 2 3 3 3 2 2 3 3 4 3 2 2 1 2 2 2
5 5 5 5 6 6 5 5 5 4 4 3 2 2 2 1 1 2 3 4 5 4 5 4 2 2 3 3 2 3 2 1 1 2 2 2 3 3 3 1 1 1 2
9 7 6 5 6 5 5 5 5 4 3 4 3 3 3 3 3 2 2 1 3 3 3 4 4 3 3 2 2 3 3 2 0 1 3 3 2 1 3 2 1 1 1
8 7 7 7 6 6 5 5 4 4 4 5 5 5 3 2 1 0 0 1 2 2 3 4 4 3 2 2 2 2 2 3 1 1 0 2 3 2 0 2 2 1 1
9 8 8 8 7 6 5 5 5 4 4 5 5 5 3 2 1 1 1 1 1 1 2 2 3 2 2 2 2 2 2 2 2 1 1 1 1 2 2 1 2 2 2
8 8 7 6 5 4 5 5 5 4 4 5 5 5 5 3 3 1 1 0 0 1 1 1 1 2 2 2 2 2 2 2 2 1 1 2 2 2 2 2 1 1 2
8 8 7 6 6 5 5 5 6 4 4 5 5 5 5 5 4 3 3 2 0 0 1 0 0 0 1 2 2 2 1 2 2 2 1 2 2 2 2 2 2 1 1
8 9 9 8 7 7 6 5 6 5 5 5 5 5 5 4 3 4 3 3 2 2 1 1 1 1 1 1 1 1 1 1 2 2 2 1 1 2 3 3 3 1 1
8 9 8 7 7 6 6 6 7 6 5 6 5 5 5 4 4 4 3 3 2 2 2 1 1 1 1 1 1 1 1 1 1 1 1 1 1 1 2 3 3 4 2
6 6 6 6 6 5 4 4 5 6 5 5 5 5 5 4 4 4 4 3 3 2 2 2 2 1 1 1 1 1 1 1 1 1 1 0 1 0 1 2 2 3 3
7 6 6 5 5 4 4 3 3 3 3 4 4 4 4 4 4 4 4 3 3 3 3 3 2 2 2 1 1 1 1 1 1 0 1 1 0 1 1 1 2 2 2
7 6 6 5 4 4 3 3 3 3 3 4 4 4 4 3 4 4 4 4 4 3 3 3 3 2 2 2 2 2 2 2 2 1 1 1 1 1 1 1 1 1 2
5 5 5 5 5 4 3 3 3 3 2 3 3 3 3 3 3 4 4 4 4 3 2 2 3 2 2 2 2 3 3 3 3 2 2 2 1 1 1 1 1 1 1
6 6 5 5 4 4 4 3 3 3 2 2 3 3 3 3 3 3 2 3 3 3 3 2 2 2 2 2 2 2 3 3 2 2 2 2 2 2 2 2 2 2 2
6 6 6 5 4 4 3 3 3 3 3 3 3 3 3 2 2 2 2 2 2 2 2 2 1 1 1 2 2 2 2 2 2 1 2 2 2 2 2 1 2 3 2
6 6 6 5 5 5 4 3 3 3 3 3 2 2 2 2 2 2 1 2 2 2 2 1 1 1 1 1 3 3 2 2 2 2 1 1 1 1 1 2 3 4 4
5 6 7 7 6 6 6 5 4 3 3 3 3 2 3 3 2 2 2 1 2 2 2 1 1 1 2 1 2 3 3 2 3 3 2 1 1 1 1 1 1 1 3
5 5 5 5 5 5 5 4 4 4 4 3 3 3 3 3 2 2 2 1 1 1 1 2 1 1 2 1 2 2 2 2 3 3 3 3 1 1 2 2 1 0 0
5 5 5 4 4 4 5 5 4 4 4 4 3 3 4 3 3 3 2 1 1 1 1 1 1 1 2 2 1 2 2 1 2 2 2 3 3 2 3 3 2 1 1
3 3 3 3 3 3 4 5 4 4 4 4 4 3 3 4 3 3 3 1 1 2 2 1 1 2 2 2 1 1 2 1 1 1 1 2 2 3 4 4 3 2 2
3 4 4 4 3 3 4 5 4 4 4 4 3 3 3 4 4 3 2 2 2 1 2 1 1 2 2 2 0 1 2 2 2 1 1 2 2 3 4 4 3 4 2
2 3 3 2 2 3 5 5 3 3 3 3 3 3 3 3 2 3 2 2 2 2 2 1 1 2 2 1 1 1 1 2 3 3 3 2 1 2 2 3 2 2 2
2 2 3 2 1 2 4 5 3 3 3 3 3 3 2 2 2 3 3 2 2 3 3 2 2 2 2 2 2 1 1 1 2 2 2 1 1 1 1 1 1 2 2
2 2 3 3 2 2 3 4 4 4 3 2 2 2 2 2 2 2 2 3 3 4 4 3 3 3 2 2 2 1 2 2 2 1 1 1 1 1 1 0 1 1 2
1 2 3 3 3 2 2 3 4 4 3 2 2 1 2 2 2 2 3 3 4 5 5 4 4 4 4 4 3 2 2 3 3 2 2 1 1 1 0 0 0 1 1
2 2 2 2 2 2 2 2 3 4 4 2 1 1 2 2 2 2 1 1 2 3 4 4 4 4 4 3 2 2 2 3 4 3 1 1 2 2 2 2 1 1 2
Wind_Direction
170 151 148 143 134 126 123 122 110 106 107 104 105 98 87 70 60 74 89 95 104 110 112 109 109 107 112 128 125 108 92 83 103 80 40 13 17 27 17 60 85 90 118
149 147 142 137 135 139 140 132 126 124 124 124 136 132 128 104 84 62 74 87 100 115 119 113 107 113 112 112 115 114 112 137 138 122 99 32 2 358 3 18 77 87 93
167 162 150 142 139 143 150 148 143 135 128 117 98 84 66 52 43 38 37 47 95 105 121 128 130 131 130 141 146 134 128 151 262 165 145 144 201 310 343 357 22 53 84
166 163 156 153 156 161 152 143 144 140 134 125 122 120 114 117 196 206 45 20 75 95 115 133 138 140 136 147 166 142 143 139 148 340 78 168 161 155 319 334 351 20 79
170 166 162 164 163 159 151 148 142 143 142 136 140 136 128 145 129 91 71 39 24 71 102 126 144 152 154 163 150 134 137 143 155 169 133 85 86 122 148 227 315 354 347
174 169 164 154 155 151 149 148 146 156 158 150 152 150 153 150 129 129 137 24 353 360 35 108 150 176 177 176 174 169 158 162 154 161 157 154 157 168 152 172 218 277 317
174 170 167 165 165 162 161 162 161 171 176 167 169 172 171 168 168 177 185 180 193 265 275 90 117 177 203 192 179 168 181 177 169 186 192 182 192 170 155 149 165 197 304
177 178 180 178 175 174 172 171 173 182 187 185 188 185 179 178 184 187 183 188 197 211 219 179 145 155 162 163 158 167 208 179 186 197 184 178 211 173 166 163 153 140 342
179 182 182 179 179 178 180 181 178 184 191 192 192 189 187 182 187 189 186 193 204 206 187 168 139 148 152 157 141 150 211 168 181 205 186 178 226 184 169 157 157 157 179
174 176 177 178 182 185 189 184 181 187 194 195 195 194 197 191 187 174 179 189 204 200 178 177 170 170 165 151 140 157 209 166 198 190 153 195 235 176 148 161 168 162 163
177 176 173 172 167 166 173 174 180 184 189 196 200 192 196 193 181 176 186 187 191 193 188 192 191 195 200 193 148 185 168 170 203 213 172 225 150 122 117 128 147 151 149
177 171 165 163 162 171 175 173 175 182 196 191 185 191 192 189 186 186 188 182 186 198 197 186 195 210 212 197 183 196 189 182 188 220 188 241 182 134 120 132 143 162 159
162 158 159 167 172 177 184 188 185 189 190 177 174 180 183 184 194 203 199 186 185 188 187 173 192 213 213 204 207 201 199 193 200 199 190 225 162 174 204 167 162 161 141
169 167 175 182 180 177 184 189 195 188 174 163 165 178 195 196 198 199 194 180 173 171 184 186 200 216 213 208 209 197 202 193 199 203 196 195 184 194 204 186 181 153 126
174 176 183 188 181 173 183 186 190 180 167 155 162 185 193 183 173 167 168 162 160 167 178 161 167 213 206 204 181 186 191 184 189 199 206 207 206 226 210 198 183 155 147
190 188 186 186 188 184 185 182 187 186 156 153 172 176 162 155 154 159 151 150 152 157 144 158 167 191 254 197 174 177 181 182 178 186 220 239 225 233 212 182 166 166 166
189 188 191 192 193 191 185 186 188 172 153 159 165 164 162 158 168 163 129 160 179 163 154 190 195 223 251 197 159 167 166 178 193 192 191 226 274 202 190 193 147 177 181
190 195 192 190 192 191 183 176 164 157 162 168 176 178 164 168 172 163 174 210 199 179 195 220 228 264 293 245 167 146 154 178 200 198 188 187 217 204 159 150 132 107 235
187 190 190 184 179 181 177 160 160 162 164 174 183 189 175 166 169 179 204 212 176 191 216 228 224 244 292 295 201 146 167 175 206 203 189 186 193 197 152 144 152 129 327
166 164 155 142 152 174 163 155 168 172 188 195 191 186 179 176 186 198 202 193 176 197 190 222 238 235 268 301 194 150 155 165 235 229 225 210 186 182 159 160 165 182 240
156 150 146 155 174 170 150 152 170 194 204 189 175 173 184 196 203 201 199 187 182 191 199 212 244 245 259 292 250 149 160 179 203 220 234 238 204 177 167 163 180 204 195
139 146 151 167 172 159 149 154 186 206 181 169 173 192 205 214 207 192 204 195 181 193 215 217 263 286 281 275 278 239 186 165 185 214 224 232 211 188 181 187 211 193 141
155 150 153 159 168 168 159 166 193 174 157 165 184 201 211 218 205 194 200 198 198 209 219 218 235 263 276 275 282 272 258 230 210 220 217 200 191 193 193 201 175 133 128
158 147 145 161 200 205 173 179 183 166 153 172 202 198 195 221 219 202 201 201 210 213 218 223 230 240 251 262 259 260 252 236 224 205 182 142 118 112 76 55 172 159 171
189 167 172 187 210 207 197 184 174 156 153 170 199 224 219 218 221 222 218 220 224 212 210 219 218 217 234 248 238 220 228 206 190 142 96 80 80 90 20 354 281 188 163
192 183 187 190 205 202 183 171 160 153 152 163 188 213 225 225 212 216 261 271 240 241 227 221 216 225 231 238 230 239 229 169 141 122 147 188 201 212 218 224 240 225 219
Height
1523 1524 1525 1526 1526 1527 1528 1528 1529 1529 1529 1530 1530 1530 1530 1531 1531 1532 1532 1532 1532 1532 1531 1531 1531 1531 1531 1531 1531 1531 1531 1532 1532 1532 1532 1533 1533 1533 1533 1533 1532 1533 1533
1522 1523 1524 1525 1525 1526 1527 1528 1528 1529 1529 1529 1530 1530 1531 1531 1531 1532 1532 1532 1532 1532 1531 1531 1531 1531 1531 1531 1532 1532 1532 1532 1533 1533 1532 1533 1534 1533 1533 1533 1533 1533 1533
1520 1521 1523 1524 1524 1525 1526 1527 1528 1528 1529 1529 1530 1530 1530 1531 1531 1531 1532 1532 1532 1531 1531 1531 1531 1531 1531 1531 1531 1532 1532 1532 1532 1533 1533 1533 1533 1533 1534 1533 1533 1533 1533
1518 1520 1521 1522 1523 1524 1525 1526 1527 1527 1528 1529 1529 1529 1529 1530 1530 1530 1531 1531 1531 1531 1531 1531 1531 1531 1531 1531 1531 1531 1531 1532 1532 1532 1532 1533 1532 1533 1533 1533 1533 1533 1532
1516 1518 1519 1520 1522 1523 1524 1525 1526 1526 1527 1527 1528 1528 1529 1529 1530 1530 1530 1530 1530 1530 1530 1531 1531 1530 1530 1530 1531 1530 1531 1531 1531 1531 1531 1531 1531 1531 1532 1532 1532 1532 1532
1515 1516 1518 1519 1521 1522 1523 1524 1524 1525 1526 1526 1527 1527 1528 1528 1529 1529 1529 1529 1529 1529 1529 1530 1530 1530 1530 1530 1530 1530 1530 1530 1530 1530 1530 1530 1530 1530 1530 1531 1531 1531 1532
1513 1514 1516 1517 1518 1520 1521 1522 1523 1523 1524 1525 1525 1526 1527 1527 1527 1528 1528 1528 1528 1528 1528 1528 1529 1529 1529 1529 1529 1529 1529 1529 1529 1529 1529 1529 1529 1529 1529 1530 1530 1530 1531
1511 1512 1514 1515 1516 1518 1519 1520 1521 1522 1523 1523 1524 1524 1525 1526 1526 1527 1527 1527 1527 1527 1527 1527 1527 1527 1527 1528 1528 1528 1528 1528 1528 1528 1528 1527 1527 1528 1528 1528 1528 1529 1529
1510 1511 1512 1514 1515 1516 1517 1518 1519 1520 1520 1521 1522 1523 1523 1524 1524 1525 1525 1526 1526 1526 1526 1526 1526 1526 1526 1526 1526 1526 1526 1526 1526 1526 1526 1526 1526 1526 1526 1527 1527 1528 1527
1508 1510 1511 1512 1513 1515 1515 1516 1517 1517 1518 1519 1520 1520 1521 1522 1522 1523 1523 1524 1524 1524 1524 1524 1524 1524 1524 1524 1524 1524 1524 1524 1524 1524 1524 1524 1524 1524 1524 1525 1525 1526 1526
1506 1508 1509 1510 1512 1513 1513 1514 1515 1515 1516 1516 1517 1518 1519 1520 1520 1521 1521 1522 1522 1522 1522 1522 1522 1522 1522 1522 1522 1522 1522 1522 1522 1522 1522 1522 1522 1522 1522 1523 1523 1523 1524
1504 1506 1507 1509 1509 1510 1511 1512 1512 1513 1513 1514 1515 1515 1516 1517 1518 1518 1519 1519 1520 1520 1520 1520 1520 1520 1521 1521 1520 1520 1520 1520 1520 1520 1520 1520 1520 1520 1520 1521 1521 1521 1522
1503 1504 1505 1506 1507 1508 1509 1509 1510 1510 1511 1512 1512 1513 1514 1514 1515 1516 1516 1517 1517 1518 1518 1518 1518 1518 1518 1518 1518 1518 1518 1518 1518 1518 1518 1518 1518 1518 1518 1519 1519 1519 1520
1501 1502 1503 1504 1505 1506 1507 1507 1508 1508 1509 1509 1510 1510 1511 1512 1512 1513 1513 1514 1514 1515 1515 1515 1516 1516 1516 1516 1516 1516 1516 1516 1516 1516 1516 1516 1516 1516 1516 1516 1517 1517 1517
1499 1499 1500 1501 1502 1503 1504 1505 1505 1506 1506 1507 1507 1507 1508 1509 1510 1510 1510 1511 1511 1512 1512 1513 1513 1513 1513 1513 1513 1513 1513 1513 1513 1513 1513 1513 1513 1513 1514 1514 1514 1514 1515
1496 1497 1498 1499 1499 1500 1501 1502 1502 1503 1503 1504 1504 1505 1506 1506 1507 1507 1507 1508 1508 1509 1509 1509 1510 1509 1510 1510 1510 1510 1510 1510 1510 1510 1510 1511 1511 1511 1511 1511 1512 1512 1512
1493 1494 1495 1496 1496 1497 1498 1498 1499 1500 1501 1501 1502 1502 1503 1503 1504 1504 1505 1505 1505 1506 1506 1506 1506 1506 1506 1506 1507 1507 1507 1507 1507 1508 1507 1508 1508 1508 1508 1508 1509 1509 1510
1491 1492 1492 1493 1494 1495 1496 1496 1497 1497 1498 1498 1499 1500 1500 1500 1501 1501 1502 1502 1502 1503 1503 1503 1503 1503 1503 1503 1503 1504 1504 1504 1504 1504 1504 1504 1504 1505 1505 1505 1506 1506 1506
1489 1489 1490 1491 1491 1492 1493 1493 1494 1494 1495 1495 1496 1496 1497 1497 1498 1498 1499 1499 1499 1499 1500 1500 1500 1500 1500 1500 1500 1501 1501 1501 1501 1501 1501 1501 1502 1502 1502 1503 1503 1503 1503
1487 1487 1488 1488 1489 1489 1490 1490 1491 1491 1491 1492 1492 1493 1494 1494 1495 1495 1495 1496 1496 1496 1496 1496 1496 1497 1497 1497 1497 1497 1497 1497 1497 1498 1498 1499 1499 1499 1500 1500 1500 1500 1500
1485 1485 1485 1486 1486 1486 1487 1487 1488 1488 1488 1489 1490 1490 1491 1491 1492 1492 1492 1492 1493 1493 1493 1493 1493 1493 1493 1493 1494 1494 1494 1494 1494 1494 1495 1496 1496 1496 1497 1497 1497 1497 1497
1482 1482 1483 1483 1483 1484 1484 1484 1485 1485 1486 1486 1487 1487 1487 1488 1488 1489 1489 1489 1489 1489 1489 1489 1489 1489 1490 1490 1490 1490 1490 1491 1491 1491 1492 1492 1493 1493 1494 1494 1494 1495 1494
1480 1480 1480 1480 1481 1481 1481 1481 1482 1483 1483 1483 1483 1483 1484 1484 1485 1485 1485 1485 1485 1485 1485 1485 1485 1485 1486 1486 1486 1487 1487 1487 1488 1488 1489 1489 1489 1490 1490 1491 1491 1491 1491
1477 1477 1477 1477 1477 1478 1478 1478 1479 1480 1480 1480 1480 1480 1481 1481 1481 1481 1481 1481 1481 1482 1482 1481 1481 1481 1482 1482 1482 1483 1483 1483 1484 1484 1485 1485 1486 1486 1487 1487 1487 1487 1487
1474 1474 1474 1474 1474 1474 1474 1475 1476 1476 1477 1477 1477 1477 1478 1478 1478 1478 1478 1478 1478 1478 1478 1478 1478 1478 1477 1478 1479 1479 1479 1479 1480 1481 1481 1481 1482 1482 1482 1483 1483 1484 1483
1472 1471 1471 1471 1471 1471 1471 1472 1473 1473 1474 1474 1474 1474 1474 1474 1474 1474 1474 1475 1475 1475 1475 1475 1475 1474 1475 1475 1475 1476 1476 1476 1477 1477 1476 1477 1477 1478 1478 1479 1479 1480 1480